Regional Weather Roundup
Issued by NWS

Home | Current Version | Previous Version | Graphics & Text | Print | Product List | Glossary On
Versions: 1 2 3 4 5 6 7 8 9 10 11 12 13 14 15 16 17 18 19 20 21 22 23 24 25 26 27 28 29 30 31 32 33 34 35 36 37 38 39 40 41 42 43 44 45 46 47 48 49 50
000
ASUS45 KBOU 290907
RWRCO

WEATHER ROUNDUP FOR COLORADO
NATIONAL WEATHER SERVICE DENVER/BOULDER CO
300 AM MDT FRI AUG 29 2014

NOTE: "FAIR" INDICATES FEW OR NO CLOUDS BELOW 12000 FEET WITH NO
SIGNIFICANT WEATHER AND/OR OBSTRUCTIONS TO VISIBILITY.

COZ001>005-013-030-031-291000-
...NORTHWEST COLORADO...

CITY           SKY/WX    TMP DP  RH WIND       PRES   REMARKS
CRAIG          PTCLDY    48  45  89 CALM      30.22F
HAYDEN         CLEAR     48  45  87 E9        30.24S
MEEKER         PTCLDY    48  45  89 E6        30.25F
MOUNT WERNER   NOT AVBL
STEAMBOAT SPGS PTCLDY    44  44  98 CALM      30.27S
WALDEN         PTCLDY    37  36  93 SE7       30.30F
$$

COZ006>008-011-291000-
...WEST CENTRAL VALLEYS...

CITY           SKY/WX    TMP DP  RH WIND       PRES   REMARKS
GRAND JUNCTION MOCLDY    59  51  75 SE9       30.14F
MONTROSE       CLEAR     56  45  66 SE9       30.24S
EAGLE          CLEAR     46  45  93 SE3       30.30S
RIFLE          CLEAR     53  48  83 CALM      30.22R
DELTA          CLEAR     56  50  79 CALM      30.21R
NUCLA          CLEAR     54  45  71 E12       30.25F
$$

COZ017>023-064>068-291000-
...SOUTHWEST COLORADO...

CITY           SKY/WX    TMP DP  RH WIND       PRES   REMARKS
DURANGO        CLEAR     47  39  74 N3        30.23S
CORTEZ         CLEAR     48  44  86 E5        30.21S
PAGOSA SPRINGS CLEAR     47  35  63 CALM      30.29F
TELLURIDE      CLEAR     43  39  87 SE5       30.40S
WOLF CREEK PAS CLEAR     37  28  70 NE13      30.54S
$$

COZ009-010-012-014-032>034-037-058>063-291000-
...CENTRAL COLORADO...

CITY           SKY/WX    TMP DP  RH WIND       PRES   REMARKS
ASPEN          CLEAR     44  40  85 SW6       30.33S
BUENA VISTA    CLEAR     39  35  86 CALM      30.32S
COPPER MTN     CLOUDY    41  36  81 W17       30.54S
BERTHOUD PASS  FOG       34  32  93 NW18G25   30.56R VSB 1/4 WCI  23
COTTONWOOD PAS CLEAR     50  36  57 W12       30.41S
GUNNISON       CLEAR     43  37  81 N3        30.36S
KREMMLING      CLEAR     41  37  87 CALM      30.33R
LEADVILLE      PTCLDY    37  35  92 CALM      30.42S
MONARCH PASS   CLEAR     36  34  93 W16       30.63F
SALIDA         CLEAR     46  41  82 SW3       30.37S
SUNLIGHT       CLEAR     45  43  93 CALM      30.50F
WILKERSON PASS NOT AVBL
$$

COZ069>075-291000-
...SAN LUIS VALLEY/SANGRE DE CRISTO MOUNTAINS...

CITY           SKY/WX    TMP DP  RH WIND       PRES   REMARKS
ALAMOSA        CLEAR     42  38  85 NE5       30.30S
LA VETA PASS   NOT AVBL
SAGUACHE       NOT AVBL
$$

COZ035-036-038>040-291000-
...NORTHERN COLORADO FRONT RANGE...

CITY           SKY/WX    TMP DP  RH WIND       PRES   REMARKS
DENVER INTL AP CLEAR     56  46  69 SW13      30.09S
DMNS CITY PARK   N/A     54  47  76 S5        30.10S
AURORA         CLEAR     53  46  77 S8        30.11S
FRONT RANGE AP CLEAR     59  46  63 SW10      30.10S
ERIE MUNI ARPT CLEAR     49  47  93 CALM      30.07F
BOULDER MUN AP CLEAR     54  46  76 W5        30.07F
CENTENNIAL     CLEAR     56  44  64 SW9       30.12S
BROOMFIELD     CLEAR     55  45  67 W8        30.10F
FORT COLLINS   CLEAR     52  48  87 NW3       30.08S
LONGMONT       CLEAR     50  45  84 W3        30.09S
$$

COZ041-046-047-076>085-087-088-291000-
...PIKES PEAK/PALMER DIVIDE AND SOUTHERN FOOTHILLS...

CITY           SKY/WX    TMP DP  RH WIND       PRES   REMARKS
COLO. SPRINGS  CLEAR     54  43  66 NW6       30.16F
A. F. ACADEMY  CLEAR     44  42  91 N6        30.17F
ELLICOTT       CLEAR     47  43  86 CALM      30.14F
FALCON         CLEAR     51  41  67 NW9       30.19F
FORT CARSON    CLEAR     51  44  79 NW8       30.13F
LIMON          PTCLDY    49  46  90 N6        30.10S
MONUMENT HILL  CLEAR     46  41  81 W9        30.19S
TRINIDAD       CLEAR     53  46  77 W17       30.15F
$$

COZ042>045-048>051-090-091-291000-
...NORTHEAST COLORADO...

CITY           SKY/WX    TMP DP  RH WIND       PRES   REMARKS
GREELEY ARPT   CLEAR     48  39  71 CALM      30.07R
AKRON          CLEAR     54  50  86 W10       30.03S
BURLINGTON     PTCLDY    54  51  90 W7        30.01S
WRAY             N/A     56  56 100 W3        29.98S
STERLING       CLEAR     55  54  94 S5        30.00S
HOLYOKE        CLEAR     61  54  77 W8        29.97S
FORT MORGAN    CLEAR     51  49  90 W7        30.04F
$$

COZ086-089-092>099-291000-
...SOUTHEAST COLORADO...

CITY           SKY/WX    TMP DP  RH WIND       PRES   REMARKS
PUEBLO         CLEAR     54  51  90 W10       30.09S
LA JUNTA       CLEAR     56  52  86 SW5       30.06S
LAMAR          CLEAR     57  54  89 SW7       30.00S
SPRINGFIELD      N/A     56  51  84 W9        30.05F
$$



USA.gov is the U.S. government's official web portal to all federal, state and local government web resources and services.